TimeHST,TemperatureF,Dew PointF,Humidity,Sea Level PressureIn,VisibilityMPH,Wind Direction,Wind SpeedMPH,Gust SpeedMPH,PrecipitationIn,Events,Conditions,WindDirDegrees,DateUTC
12:53 AM,75.9,70.0,82,30.02,10.0,ENE,9.2,-,0.00,Rain,Light Rain,70,2012-09-20 10:53:00
1:07 AM,75.2,69.8,83,30.03,10.0,East,9.2,-,0.00,,Mostly Cloudy,90,2012-09-20 11:07:00
1:53 AM,75.9,70.0,82,30.01,10.0,East,6.9,-,0.00,,Scattered Clouds,80,2012-09-20 11:53:00
2:08 AM,75.2,69.8,83,30.01,10.0,ENE,5.8,-,N/A,,Mostly Cloudy,60,2012-09-20 12:08:00
2:22 AM,75.2,69.8,83,30.01,10.0,NNE,6.9,-,N/A,,Scattered Clouds,30,2012-09-20 12:22:00
2:53 AM,75.0,70.0,84,30.00,10.0,NE,4.6,-,N/A,,Clear,40,2012-09-20 12:53:00
3:53 AM,73.0,69.1,87,29.99,10.0,NNW,5.8,-,N/A,,Mostly Cloudy,330,2012-09-20 13:53:00
4:35 AM,73.4,69.8,88,30.01,10.0,WNW,4.6,-,0.00,Rain,Light Rain,290,2012-09-20 14:35:00
4:53 AM,72.0,69.1,91,30.01,10.0,West,6.9,-,0.00,,Mostly Cloudy,280,2012-09-20 14:53:00
5:03 AM,71.6,69.8,94,30.01,10.0,WNW,5.8,-,N/A,,Mostly Cloudy,290,2012-09-20 15:03:00
5:17 AM,71.6,69.8,94,30.01,10.0,WNW,4.6,-,N/A,,Mostly Cloudy,300,2012-09-20 15:17:00
5:30 AM,71.6,69.8,94,30.02,10.0,WNW,3.5,-,N/A,,Scattered Clouds,290,2012-09-20 15:30:00
5:53 AM,71.1,68.0,90,30.01,10.0,WNW,5.8,-,N/A,,Partly Cloudy,290,2012-09-20 15:53:00
6:53 AM,70.0,66.9,90,30.03,10.0,West,6.9,-,N/A,,Clear,280,2012-09-20 16:53:00
7:53 AM,75.9,69.1,79,30.04,10.0,Calm,Calm,-,N/A,,Scattered Clouds,0,2012-09-20 17:53:00
8:53 AM,79.0,69.1,72,30.04,10.0,North,8.1,-,N/A,,Scattered Clouds,360,2012-09-20 18:53:00
9:53 AM,81.0,70.0,69,30.05,10.0,NNE,11.5,-,N/A,,Mostly Cloudy,30,2012-09-20 19:53:00
10:53 AM,82.0,69.1,65,30.04,10.0,NE,9.2,-,N/A,,Clear,40,2012-09-20 20:53:00
11:53 AM,82.0,70.0,67,30.02,10.0,NE,10.4,-,N/A,,Scattered Clouds,50,2012-09-20 21:53:00
12:53 PM,82.0,70.0,67,30.00,10.0,NE,11.5,-,N/A,,Clear,40,2012-09-20 22:53:00
1:53 PM,82.9,70.0,65,29.99,10.0,NE,15.0,-,N/A,,Partly Cloudy,40,2012-09-20 23:53:00
2:53 PM,82.0,71.1,69,29.97,10.0,NNE,16.1,-,N/A,,Scattered Clouds,30,2012-09-21 00:53:00
3:53 PM,81.0,70.0,69,29.97,10.0,NE,15.0,-,N/A,,Mostly Cloudy,40,2012-09-21 01:53:00
4:53 PM,79.0,71.1,77,29.98,10.0,NE,16.1,-,N/A,,Scattered Clouds,40,2012-09-21 02:53:00
5:53 PM,77.0,69.1,76,29.99,10.0,Calm,Calm,-,N/A,,Scattered Clouds,0,2012-09-21 03:53:00
6:53 PM,77.0,69.1,76,30.01,10.0,WNW,3.5,-,N/A,,Overcast,300,2012-09-21 04:53:00
7:22 PM,77.0,69.8,78,30.02,10.0,NW,5.8,-,N/A,,Overcast,320,2012-09-21 05:22:00
7:53 PM,75.0,71.1,87,30.02,10.0,NNE,12.7,-,0.03,,Overcast,20,2012-09-21 05:53:00
8:53 PM,75.0,72.0,90,30.03,10.0,WNW,3.5,-,0.00,Rain,Light Rain,300,2012-09-21 06:53:00
9:19 PM,73.4,71.6,94,30.05,5.0,Variable,4.6,-,0.06,Rain,Rain,0,2012-09-21 07:19:00
9:53 PM,73.9,72.0,93,30.04,10.0,NW,3.5,-,0.06,,Scattered Clouds,320,2012-09-21 07:53:00
10:53 PM,73.0,71.1,93,30.04,10.0,West,6.9,-,0.00,Rain,Light Rain,280,2012-09-21 08:53:00
11:01 PM,73.4,71.6,94,30.04,10.0,WNW,4.6,-,0.00,,Overcast,290,2012-09-21 09:01:00
11:28 PM,73.4,71.6,94,30.04,10.0,WNW,4.6,-,0.00,,Scattered Clouds,300,2012-09-21 09:28:00
11:38 PM,73.4,71.6,94,30.03,10.0,NW,3.5,-,0.00,,Mostly Cloudy,310,2012-09-21 09:38:00
11:53 PM,75.0,71.1,87,30.03,10.0,NNW,4.6,-,0.00,,Mostly Cloudy,330,2012-09-21 09:53:00